Regional Weather Roundup
Issued by NWS

Home | Current Version | Previous Version | Text Only | Print | Product List | Glossary On
Versions: 1 2 3 4 5 6 7 8 9 10 11 12 13 14 15 16 17 18 19 20 21 22 23 24 25 26 27 28 29 30 31 32 33 34 35 36 37 38 39 40 41 42 43 44 45 46 47 48 49 50
000
ASUS45 KCYS 281410
RWRWY

WYOMING REGIONAL WEATHER ROUNDUP
NATIONAL WEATHER SERVICE CHEYENNE WY
800 AM MDT THU MAY 28 2015

NOTE:  "FAIR" INDICATES FEW OR NO CLOUDS BELOW 12,000 FEET
WITH NO SIGNIFICANT WEATHER AND/OR OBSTRUCTIONS TO VISIBILITY.

WYZ001-281500-
YELLOWSTONE NATIONAL PARK

CITY           SKY/WX    TMP DP  RH WIND       PRES   REMARKS
LK YELLOWSTONE   N/A     33  32  96 CALM      30.19R
W YELLOWSTONE  NOT AVBL

$$
WYZ002>013-054>058-071-098>099-281500-
NORTHERN WYOMING

CITY           SKY/WX    TMP DP  RH WIND       PRES   REMARKS
JACKSON        CLOUDY    43  41  93 CALM      30.15R
CODY           CLOUDY    50  45  81 W6        30.07R
GREYBULL       FAIR      56  49  77 CALM      30.02R
WORLAND        FAIR      54  48  80 CALM      30.02S
SHERIDAN       CLOUDY    56  49  77 W9        30.02R
BUFFALO        PTSUNNY   54  46  74 N8        30.04S
GILLETTE       PTSUNNY   56  50  80 NW8       30.01R
HULETT         FAIR      57  52  82 SW3       30.01R
NEWCASTLE      CLOUDY    55  50  82 N8        30.02R

$$
WYZ014>020-022>026-101>103-281500-
CENTRAL WYOMING

CITY           SKY/WX    TMP DP  RH WIND       PRES   REMARKS
BIG PINEY      FAIR      45  39  79 NE7       30.17R
PINEDALE       CLOUDY    41  39  93 NW5       30.18R
DUBOIS         PTSUNNY   46  34  61 N13       30.12F
LANDER         FAIR      54  43  66 N3        30.06S
RIVERTON       FAIR      53  44  71 NW10      30.07S
CASPER         CLOUDY    53  45  74 SW10      30.05R
DOUGLAS        FAIR      52  47  83 SE6       30.04S

$$
WYZ021-027>030-104>119-281500-
SOUTHERN WYOMING

CITY           SKY/WX    TMP DP  RH WIND       PRES   REMARKS
EVANSTON       LGT RAIN  42  38  85 W14       30.22R
KEMMERER       FAIR      43  37  81 CALM      30.19R
FORT BRIDGER   SUNNY     46  45  93 W7        30.22R
ROCK SPRINGS   FAIR      47  40  76 W13       30.16S
DIXON          RAIN      50  45  83 W6        30.20S
RAWLINS        CLOUDY    48  42  80 SW12      30.14S
SARATOGA       CLOUDY    46  43  87 SW6       30.18S
LARAMIE        FAIR      52  39  61 W15       30.14S
CHEYENNE       PTSUNNY   51  44  77 W3        30.10S
TORRINGTON     FAIR      55  54  96 W5        30.01S
PINE BLUFFS    FAIR      57  52  82 CALM      30.07R

$$


USA.gov is the U.S. government's official web portal to all federal, state and local government web resources and services.